Wind_Speed
7 7 6 5 3 2 1 1 2 3 5 6 7 7 9 9 10 10 8 8 8 9 9 9 9 9 9 8 8 8 7 7 7 6 6 7 7 7 7 7 7 7 7 8 8 8 9 9 8
8 7 6 5 3 3 1 1 2 5 6 6 6 7 9 10 10 9 8 9 9 9 9 9 9 9 9 9 9 9 8 8 8 7 7 8 8 8 7 7 7 7 8 8 9 9 10 10 9
10 8 7 6 5 3 2 2 3 4 7 7 7 8 9 10 10 9 9 9 9 10 10 10 9 9 9 9 9 9 9 9 8 8 9 9 8 8 8 8 8 9 9 9 10 10 11 11 11
10 9 8 7 5 4 3 4 4 4 7 9 9 9 10 10 10 10 10 10 10 9 9 9 9 9 9 9 9 9 9 9 9 9 9 9 10 9 9 9 9 9 10 11 11 10 11 12 12
11 10 9 7 5 4 5 5 7 6 8 9 10 11 10 11 11 11 10 11 10 8 8 8 8 9 9 9 9 9 8 8 9 9 9 9 10 10 10 10 10 11 11 11 11 11 11 12 13
12 11 9 7 5 6 7 7 7 7 8 10 11 11 11 11 12 12 12 11 10 8 8 8 8 9 9 9 9 8 8 8 8 8 9 10 10 10 11 11 11 11 12 12 11 12 12 12 13
13 12 11 8 6 7 7 8 8 10 10 11 11 11 11 11 12 12 12 12 10 8 9 9 9 9 9 9 9 9 9 9 9 8 8 9 10 11 11 11 12 12 12 13 13 13 13 13 13
13 12 10 8 7 7 8 9 9 10 10 10 11 12 12 12 12 12 11 11 10 8 8 8 9 9 9 9 9 9 9 10 10 9 9 10 10 11 11 12 12 13 13 14 14 14 14 13 13
14 12 11 10 9 7 9 10 10 9 10 11 11 11 12 12 12 12 12 12 10 9 8 8 8 9 9 9 9 10 10 11 11 10 10 11 11 11 12 12 13 13 13 14 14 15 14 15 15
15 13 11 11 10 9 10 10 11 12 11 10 10 10 12 12 12 12 12 12 11 9 9 9 9 9 10 10 10 10 11 12 11 11 11 11 11 12 13 13 14 14 14 14 15 15 15 15 16
15 14 12 11 10 10 11 13 13 12 11 12 11 11 12 12 12 12 12 13 11 10 9 9 9 9 10 10 10 11 12 12 11 11 11 11 11 12 13 14 15 15 15 15 15 15 15 16 16
16 14 13 12 11 11 11 13 14 13 12 12 12 13 13 12 13 13 13 13 12 10 10 9 10 10 10 10 11 11 12 12 11 11 11 11 12 13 14 14 14 15 16 15 16 16 16 16 17
15 15 13 12 11 11 11 12 13 12 12 12 12 12 13 13 13 13 14 13 12 10 10 10 9 10 10 10 11 11 12 12 11 12 11 12 12 13 14 14 15 15 15 16 16 16 16 17 17
15 16 14 13 12 12 11 12 12 11 10 11 11 11 12 12 13 13 13 13 12 11 10 10 10 11 11 11 12 13 13 13 12 12 12 12 12 13 14 14 14 15 15 15 16 17 17 16 17
15 13 14 13 12 11 11 12 11 10 9 10 11 11 11 12 12 12 12 12 12 11 10 11 11 12 12 12 12 13 13 13 12 12 12 12 12 12 12 12 13 14 15 15 16 17 17 17 16
15 13 12 12 11 10 11 11 11 9 9 10 10 11 11 11 10 11 12 12 11 10 10 11 12 12 13 13 13 12 12 12 12 12 11 12 11 12 12 13 13 13 14 15 15 16 16 18 17
13 12 12 11 10 9 10 11 11 10 10 9 10 10 10 10 9 10 10 10 10 10 10 11 12 13 13 14 13 13 12 13 13 12 12 11 11 12 13 13 13 13 14 15 16 16 17 17 17
12 11 11 10 9 9 10 10 10 9 9 9 8 9 10 10 8 10 11 11 11 11 11 12 12 13 13 13 13 13 13 13 13 12 12 12 12 12 12 13 13 14 15 15 16 16 17 17 17
10 10 10 9 9 10 10 9 9 9 7 7 8 9 10 10 9 10 11 10 11 11 12 12 12 12 12 13 13 13 13 13 13 13 13 13 13 13 13 13 14 14 15 16 16 17 17 17 17
11 11 10 9 9 9 9 10 9 8 8 8 9 9 10 9 9 9 9 10 11 11 11 12 12 13 12 12 13 13 13 13 13 13 13 13 13 13 14 14 14 15 15 15 16 16 16 17 17
11 10 9 8 9 11 11 11 10 8 8 9 9 8 8 10 10 10 10 9 10 10 11 11 12 12 12 12 13 13 14 14 14 14 14 14 14 14 14 14 14 15 15 16 16 16 17 18 18
12 10 10 10 10 11 12 11 11 10 10 10 8 6 8 10 10 10 10 10 10 10 11 12 12 13 13 13 14 14 15 15 15 15 15 15 15 15 15 15 15 15 15 16 16 16 17 18 18
12 11 12 12 12 12 13 14 13 11 11 9 8 8 8 10 10 10 11 11 11 11 12 12 12 14 14 14 14 15 16 16 16 16 16 16 16 16 16 16 16 16 16 16 16 16 16 17 17
13 13 13 14 14 14 14 15 14 12 11 10 9 10 10 10 10 11 12 13 13 13 12 12 13 14 14 15 15 16 16 17 16 16 17 17 17 17 17 16 16 16 16 16 16 16 16 17 17
15 16 16 17 16 15 14 15 14 12 12 10 10 11 11 12 12 12 13 14 14 14 13 13 14 14 15 15 16 16 17 17 17 18 17 17 17 17 17 17 17 17 16 16 16 16 16 16 16
17 18 17 17 16 14 14 15 14 12 12 10 11 12 13 12 12 12 14 14 14 14 14 14 14 14 15 15 16 16 17 18 18 18 17 17 17 18 17 17 17 16 16 15 15 16 16 15 15
18 18 17 18 17 17 17 17 14 12 11 10 12 12 13 13 12 13 14 14 14 14 14 14 14 14 15 16 16 17 17 18 18 18 18 18 19 18 18 18 17 16 16 16 15 16 15 15 14
18 18 18 19 19 18 18 16 13 12 10 11 12 12 12 12 13 14 14 15 14 14 13 14 14 15 16 16 17 17 17 17 18 18 19 19 18 18 18 17 17 17 17 17 16 16 15 15 15
17 18 19 19 19 18 17 16 14 14 13 13 12 13 13 13 14 15 15 15 14 13 13 14 16 16 16 17 17 18 18 18 18 18 18 18 18 18 17 17 17 17 17 17 16 16 15 15 15
18 19 18 18 18 19 18 16 14 15 14 14 13 13 13 14 15 15 14 14 13 13 14 15 16 17 18 18 18 17 17 17 17 18 17 17 17 17 16 16 16 16 16 16 16 16 15 15 15
Wind_Direction
184 182 182 175 174 190 155 15 340 339 340 337 328 327 329 327 320 317 321 327 333 336 334 334 333 331 329 322 316 312 311 306 298 292 285 281 280 280 277 268 260 256 254 251 246 243 243 241 236
193 194 192 185 201 203 218 304 298 309 322 329 330 330 325 324 316 318 317 322 330 333 331 332 330 327 324 318 313 310 307 302 293 287 283 279 278 277 274 265 258 258 255 251 250 247 248 245 242
200 201 199 198 207 215 228 266 296 328 326 329 332 328 319 318 318 319 318 321 324 329 330 330 330 324 320 316 312 305 302 295 288 285 278 274 273 271 269 267 261 256 253 250 250 250 250 250 248
201 203 202 203 209 216 245 272 301 324 323 324 322 325 319 313 313 316 319 321 320 324 329 330 330 325 321 316 309 305 302 295 290 285 277 271 268 265 265 266 263 259 254 253 252 254 251 251 251
202 205 209 210 208 231 262 274 297 314 316 319 318 319 320 315 312 316 320 320 316 321 326 326 325 327 324 317 311 308 306 299 291 285 276 270 266 263 262 265 264 263 257 253 253 254 250 251 253
205 208 215 211 205 230 248 269 291 302 304 308 315 317 320 318 316 315 320 321 317 320 323 321 320 321 320 317 317 313 309 304 296 288 277 268 265 263 262 264 263 262 261 258 255 253 252 250 250
209 211 213 212 211 218 237 258 279 296 303 303 308 312 319 321 322 320 321 320 318 324 322 320 318 318 317 315 315 312 307 303 300 293 283 272 268 266 264 263 262 263 264 264 263 260 258 255 254
212 213 215 208 214 227 247 263 273 285 292 299 305 308 312 318 320 318 317 317 316 318 317 317 319 318 318 316 311 311 309 306 301 296 287 278 273 269 263 263 263 265 264 263 264 264 260 259 256
213 213 214 213 222 240 259 269 277 284 295 302 305 305 307 313 316 312 311 313 313 314 316 315 315 316 313 311 309 310 310 309 303 297 291 282 273 268 265 264 266 266 264 262 262 263 262 260 256
214 212 215 222 228 240 258 271 274 286 291 301 302 302 305 307 310 309 308 307 308 310 314 314 312 314 313 310 312 311 311 310 307 301 290 282 275 272 267 265 268 268 266 266 264 262 263 262 260
215 213 215 223 233 247 258 270 277 285 287 292 297 300 304 306 308 310 310 305 303 306 310 309 309 309 312 314 313 313 314 310 310 306 288 281 276 275 272 270 271 269 268 268 266 265 266 265 264
221 218 220 225 237 247 259 273 279 283 291 293 295 301 302 303 304 308 310 308 306 303 302 307 308 310 312 314 313 314 314 309 310 309 295 286 282 278 276 272 271 269 268 268 268 267 266 266 266
220 218 219 227 237 248 258 272 274 288 294 293 293 294 299 299 298 301 305 306 301 301 302 308 308 311 312 311 312 312 312 308 308 308 304 289 286 283 278 275 273 271 269 268 267 268 269 268 267
222 224 226 235 244 253 258 267 278 290 293 296 295 295 301 301 299 298 298 300 299 304 306 308 310 311 310 312 312 310 308 305 304 304 305 301 292 287 284 280 278 273 271 270 267 267 267 267 266
226 228 231 238 250 256 263 270 282 288 294 300 302 298 297 304 302 298 299 299 299 305 307 308 307 310 309 307 309 310 310 307 307 308 308 307 295 287 283 279 277 275 274 272 268 267 267 267 268
226 227 230 234 244 256 267 275 287 285 290 300 305 304 300 303 303 302 301 298 297 303 307 310 308 309 309 309 306 309 310 309 308 310 311 306 297 286 284 281 279 278 274 272 271 268 270 269 269
230 229 233 234 237 251 264 273 279 280 288 297 303 308 311 309 308 308 307 306 305 306 310 311 307 307 306 310 310 311 310 309 307 306 305 300 295 288 287 285 283 281 277 273 271 268 269 269 269
236 235 236 234 237 251 266 275 275 274 280 293 298 308 313 314 313 312 312 311 310 310 313 312 306 304 305 306 311 312 312 310 308 305 305 301 300 297 290 288 286 283 279 274 273 272 270 269 270
232 233 236 236 240 251 256 263 267 270 271 280 294 307 310 314 315 314 313 308 310 313 313 310 306 302 302 302 305 306 308 309 310 306 304 301 299 299 294 284 285 284 279 276 277 276 272 271 272
230 230 230 233 235 246 254 260 260 272 278 278 288 299 307 313 318 321 311 305 308 312 310 307 304 300 299 300 303 305 305 305 305 304 303 301 301 300 299 291 288 286 284 280 279 278 274 272 272
227 230 235 238 230 237 248 251 258 262 274 276 280 285 304 318 317 319 319 314 312 311 311 311 309 303 301 302 304 307 308 306 305 304 303 304 305 302 301 298 292 285 284 283 282 280 275 273 272
228 233 241 246 242 238 251 256 256 263 270 280 285 287 301 310 313 321 323 317 315 314 314 314 311 306 303 303 303 306 306 303 302 303 303 304 303 300 298 296 294 290 287 284 282 281 277 274 272
232 234 243 248 251 248 249 257 261 266 274 285 290 289 291 303 310 316 315 315 314 313 315 316 313 308 305 305 306 307 305 303 301 301 303 304 303 301 298 295 295 295 293 290 285 283 281 277 273
231 234 239 243 247 250 250 257 261 263 273 273 276 285 288 291 302 309 310 312 313 312 311 313 315 312 308 307 306 307 305 304 304 303 304 304 304 302 300 299 298 296 294 290 288 285 281 280 276
230 232 236 239 244 253 255 256 260 263 267 268 273 282 283 287 294 299 302 308 311 309 309 311 313 314 310 307 306 306 304 303 303 302 302 302 303 301 301 300 302 299 294 291 290 289 286 285 281
232 236 238 243 249 253 256 258 260 268 270 269 275 280 279 281 289 295 300 303 303 303 303 307 311 313 311 308 307 304 302 302 302 302 301 299 299 299 300 299 300 298 295 293 293 291 288 285 283
232 234 241 245 250 256 256 257 260 264 270 272 277 280 280 283 288 294 299 299 297 296 298 302 307 310 312 312 312 310 306 303 303 302 300 298 298 297 297 296 296 295 294 294 293 291 290 286 283
233 233 236 243 250 259 260 261 264 266 274 275 278 285 284 288 295 298 297 298 295 293 298 302 305 310 312 313 313 311 310 306 303 302 300 300 299 298 297 297 297 295 294 294 293 289 287 287 285
234 234 237 243 250 256 259 260 267 269 274 279 286 289 288 288 293 300 297 298 297 295 297 300 306 311 314 315 314 313 310 308 306 305 304 303 300 300 301 298 296 295 294 293 290 288 287 288 287
234 234 239 248 254 258 260 259 263 266 272 275 281 288 289 295 298 298 298 296 298 296 295 298 303 308 312 315 315 315 313 309 308 306 305 305 305 303 302 301 300 296 294 293 291 288 287 288 287
Height
5892 5892 5893 5894 5895 5895 5894 5894 5893 5894 5894 5894 5893 5892 5892 5891 5891 5892 5889 5887 5885 5884 5883 5882 5881 5881 5880 5879 5878 5877 5877 5876 5876 5875 5875 5874 5874 5874 5874 5874 5874 5874 5874 5874 5874 5874 5874 5874 5875
5890 5891 5892 5893 5893 5893 5894 5893 5892 5893 5893 5893 5892 5891 5891 5890 5889 5887 5886 5885 5884 5883 5882 5881 5880 5879 5878 5878 5877 5876 5875 5875 5874 5874 5873 5873 5873 5873 5873 5872 5872 5872 5872 5872 5872 5873 5873 5873 5873
5888 5889 5891 5891 5891 5891 5892 5892 5891 5891 5892 5892 5891 5890 5889 5889 5887 5886 5885 5883 5882 5882 5881 5880 5879 5878 5877 5876 5875 5874 5874 5873 5872 5872 5872 5871 5871 5871 5871 5871 5871 5871 5871 5871 5871 5871 5871 5871 5872
5887 5888 5889 5890 5889 5890 5890 5890 5890 5890 5891 5890 5890 5889 5888 5887 5886 5885 5883 5882 5881 5880 5880 5878 5877 5876 5876 5875 5874 5873 5872 5871 5870 5870 5870 5869 5869 5869 5869 5869 5869 5869 5869 5869 5869 5869 5869 5870 5870
5885 5886 5888 5888 5888 5888 5888 5888 5889 5889 5889 5889 5889 5888 5886 5885 5884 5883 5882 5881 5880 5879 5878 5877 5876 5875 5874 5873 5872 5871 5870 5869 5868 5868 5867 5867 5867 5867 5867 5867 5867 5867 5867 5867 5867 5867 5867 5867 5868
5884 5885 5886 5886 5886 5886 5887 5887 5887 5887 5887 5888 5887 5886 5885 5884 5882 5881 5880 5879 5878 5877 5876 5875 5874 5873 5872 5871 5870 5869 5868 5867 5866 5865 5865 5865 5865 5865 5865 5865 5865 5865 5865 5865 5865 5865 5865 5865 5865
5883 5883 5884 5885 5885 5885 5885 5885 5886 5886 5885 5886 5886 5885 5883 5883 5881 5880 5879 5878 5877 5875 5875 5874 5873 5872 5871 5869 5868 5867 5866 5865 5864 5863 5863 5863 5862 5862 5862 5862 5862 5862 5862 5862 5862 5862 5863 5863 5863
5880 5882 5882 5883 5883 5883 5884 5884 5884 5884 5884 5884 5884 5883 5882 5882 5881 5879 5878 5876 5875 5874 5873 5872 5871 5870 5869 5867 5866 5865 5864 5863 5862 5861 5860 5860 5860 5859 5859 5859 5859 5859 5860 5860 5860 5860 5860 5860 5860
5879 5881 5881 5882 5882 5882 5882 5882 5882 5882 5882 5882 5881 5881 5881 5880 5879 5878 5876 5875 5874 5872 5871 5870 5869 5868 5867 5866 5864 5863 5862 5861 5860 5859 5858 5857 5857 5857 5857 5857 5857 5856 5856 5857 5857 5857 5857 5857 5857
5877 5879 5879 5880 5880 5880 5880 5880 5880 5880 5880 5880 5879 5879 5878 5878 5877 5876 5875 5873 5872 5871 5870 5868 5867 5866 5865 5864 5862 5861 5860 5858 5857 5856 5855 5854 5854 5854 5854 5853 5853 5853 5853 5853 5853 5854 5854 5854 5854
5875 5877 5877 5877 5877 5878 5878 5878 5878 5877 5877 5878 5877 5877 5876 5875 5875 5874 5872 5871 5870 5868 5867 5866 5865 5864 5863 5861 5860 5859 5857 5856 5855 5853 5852 5852 5851 5851 5850 5850 5850 5850 5850 5850 5850 5850 5851 5851 5851
5874 5875 5875 5875 5875 5875 5876 5876 5876 5876 5876 5876 5875 5875 5874 5873 5872 5871 5870 5869 5867 5866 5865 5864 5863 5861 5860 5859 5858 5856 5855 5854 5852 5851 5849 5848 5848 5848 5847 5847 5847 5847 5847 5847 5847 5847 5847 5847 5847
5871 5872 5873 5873 5873 5873 5873 5874 5873 5873 5874 5874 5873 5872 5871 5870 5870 5869 5868 5866 5864 5864 5863 5861 5860 5859 5858 5857 5855 5854 5853 5851 5849 5848 5847 5846 5845 5844 5844 5844 5843 5843 5843 5843 5843 5843 5843 5843 5843
5869 5869 5870 5870 5870 5870 5871 5871 5871 5871 5871 5870 5870 5869 5868 5867 5867 5866 5865 5863 5862 5861 5860 5859 5858 5857 5855 5854 5853 5851 5850 5848 5847 5845 5844 5842 5841 5841 5840 5840 5839 5839 5839 5839 5838 5839 5839 5839 5839
5866 5867 5868 5868 5868 5868 5869 5869 5869 5869 5868 5867 5867 5866 5865 5865 5864 5863 5862 5861 5859 5859 5858 5857 5856 5854 5853 5851 5850 5848 5847 5845 5844 5842 5841 5839 5838 5837 5837 5836 5836 5835 5835 5835 5834 5834 5834 5834 5834
5863 5865 5866 5866 5866 5866 5867 5867 5867 5866 5865 5865 5864 5863 5862 5862 5861 5860 5859 5857 5857 5856 5855 5854 5853 5852 5850 5848 5847 5845 5844 5842 5841 5839 5838 5836 5835 5834 5833 5832 5832 5831 5831 5830 5830 5830 5830 5830 5830
5861 5862 5863 5864 5863 5863 5864 5864 5865 5864 5864 5863 5862 5861 5860 5859 5858 5858 5856 5855 5854 5854 5853 5851 5850 5849 5848 5846 5844 5843 5841 5840 5838 5836 5835 5833 5832 5830 5829 5828 5827 5827 5826 5826 5826 5826 5826 5825 5825
5859 5860 5860 5860 5861 5861 5861 5861 5862 5862 5861 5860 5860 5859 5858 5857 5856 5855 5854 5853 5852 5851 5850 5849 5847 5846 5845 5843 5841 5840 5838 5837 5835 5834 5832 5830 5829 5827 5826 5824 5823 5823 5822 5821 5821 5821 5820 5820 5820
5856 5856 5857 5858 5858 5858 5858 5858 5859 5858 5858 5858 5858 5857 5856 5855 5854 5853 5852 5850 5849 5848 5847 5846 5845 5843 5842 5840 5839 5837 5836 5834 5832 5830 5828 5827 5825 5823 5822 5820 5819 5818 5817 5817 5816 5816 5815 5815 5815
5852 5854 5855 5856 5856 5856 5856 5856 5856 5856 5856 5856 5856 5855 5854 5853 5852 5850 5849 5848 5847 5846 5844 5843 5842 5840 5839 5838 5836 5834 5833 5831 5829 5827 5825 5823 5821 5820 5818 5816 5815 5814 5813 5812 5811 5811 5810 5810 5809
5850 5851 5852 5853 5854 5854 5854 5854 5854 5854 5854 5853 5853 5853 5852 5851 5850 5848 5847 5845 5844 5843 5842 5840 5839 5837 5836 5834 5833 5831 5829 5828 5826 5824 5822 5820 5818 5816 5814 5812 5811 5809 5808 5807 5807 5806 5805 5804 5804
5847 5849 5849 5850 5850 5851 5852 5851 5851 5851 5851 5850 5850 5850 5849 5848 5847 5846 5845 5844 5842 5841 5839 5837 5836 5834 5833 5831 5829 5827 5826 5824 5822 5820 5818 5816 5814 5812 5810 5808 5807 5805 5804 5802 5801 5800 5800 5799 5798
5844 5845 5846 5847 5847 5848 5848 5848 5848 5848 5848 5848 5847 5847 5846 5846 5845 5844 5842 5841 5840 5838 5836 5834 5832 5831 5829 5827 5825 5823 5822 5820 5818 5816 5813 5811 5809 5807 5805 5804 5802 5800 5799 5797 5796 5795 5793 5793 5792
5840 5842 5843 5843 5844 5844 5844 5844 5845 5844 5845 5845 5845 5844 5843 5843 5842 5841 5840 5838 5837 5835 5833 5831 5829 5827 5825 5823 5821 5819 5817 5815 5813 5811 5809 5807 5805 5803 5801 5799 5797 5795 5794 5792 5791 5789 5788 5787 5786
5836 5838 5839 5839 5839 5840 5841 5840 5841 5841 5841 5841 5841 5841 5840 5839 5838 5838 5837 5835 5833 5832 5830 5828 5826 5824 5821 5819 5817 5814 5813 5811 5808 5806 5804 5802 5799 5797 5796 5794 5792 5790 5788 5787 5785 5784 5783 5782 5781
5832 5834 5835 5835 5836 5837 5837 5836 5838 5838 5838 5837 5837 5837 5837 5836 5835 5834 5833 5832 5830 5828 5826 5825 5823 5820 5818 5815 5813 5810 5808 5806 5804 5801 5799 5797 5794 5792 5790 5789 5786 5785 5783 5782 5780 5779 5778 5777 5776
5828 5829 5831 5832 5832 5833 5833 5833 5834 5834 5834 5833 5833 5832 5832 5832 5831 5829 5829 5828 5826 5824 5823 5821 5819 5817 5814 5811 5809 5806 5803 5801 5799 5796 5794 5791 5789 5787 5785 5783 5781 5780 5778 5777 5775 5774 5773 5772 5771
5824 5826 5827 5827 5827 5828 5828 5828 5830 5830 5830 5830 5829 5829 5828 5828 5826 5825 5825 5824 5822 5820 5819 5817 5816 5813 5811 5808 5805 5802 5799 5796 5794 5791 5788 5786 5784 5781 5779 5777 5776 5774 5773 5772 5770 5769 5768 5767 5766
5819 5821 5822 5823 5823 5824 5824 5827 5826 5826 5826 5826 5826 5825 5825 5824 5823 5822 5821 5819 5817 5816 5814 5813 5811 5809 5806 5804 5800 5797 5794 5791 5788 5786 5783 5781 5778 5776 5774 5771 5770 5769 5768 5766 5765 5764 5763 5762 5761
5814 5816 5817 5819 5819 5820 5820 5824 5822 5822 5822 5821 5821 5821 5821 5820 5819 5818 5817 5815 5814 5812 5811 5809 5807 5804 5802 5799 5796 5793 5790 5787 5784 5781 5779 5776 5773 5771 5769 5766 5765 5763 5762 5761 5760 5759 5758 5757 5757